カタログに戻る

FENGYUN 1C DEB

運用中SSO
NORAD 30547·DEBRIS·🇨🇳 China

打ち上げ May 10, 1999 から Taiyuan Satellite Launch Center

Loading…

次のパス (今後24時間)

TLE

最新Source: Space-Track

元期: Sep 14, 2026, 08:38 UTC

1 30547U 99025AKM 26257.36018646  .00000344  00000-0  12260-3 0  9995
2 30547  98.8754 114.9322 0096118 123.8942  48.2125 14.38094032 26811

AllMySatでFENGYUN 1C DEBをリアルタイム追跡

Download on the App Store